Flag for U.S.A. Weather past 2 weeks in Boise, Idaho, U.S.A.

Now
63 °F

Sunny.


Feels Like: 63 °F
Forecast: 54 / 74 °F
Wind: 10 mph from Northwest

Location: Boise Air Terminal

Current Time: May 23, 2015 at 10:58:28 AM

Latest Report: May 23, 2015 at 9:53 AM


Visibility: 10 mi

Pressure: 29.85 "Hg

Humidity: 65%

Dew point: 51 °F

Location of BoiseLocation

Historic Weather in Boise — Graph

°F

Boise temperature yesterday

Maximum temperature yesterday: 72 °F (at 4:53 PM)
Minimum temperature yesterday: 52 °F (at 5:53 AM)
Average temperature yesterday: 62 °F

Past Weeks' High & Low Weather Summary

 TemperatureHumidityPressure
High75 °F (May 9, 4:53 PM)97% (May 15, 10:53 AM)30.04 "Hg (May 15, 10:53 AM)
Low44 °F (May 10, 6:53 AM)13% (May 9, 5:53 PM)29.51 "Hg (May 12, 5:53 PM)
Average59 °F59%29.82 "Hg
* Reported May 8 9:02 AM — May 23 9:53 AM, Boise, Weather by CustomWeather, © 2015

Note: Actual official high and low records may vary slightly from our data, if they occured in-between our weather recording intervals... More about our weather records

Advertising

Boise weather history for previous 24 hours

 ConditionsComfort  
Time TempWeatherWind HumidityBarometerVisibility
9:53 AM
Sat, May 23
63 °FSunny.10 mph65%29.85 "Hg10 mi
8:53 AM58 °FScattered clouds.5 mph78%29.86 "Hg10 mi
7:53 AM56 °FPassing clouds.3 mph84%29.85 "Hg10 mi
6:53 AM54 °FPassing clouds.No wind86%29.85 "Hg10 mi
5:53 AM54 °FPassing clouds.5 mph86%29.84 "Hg10 mi
4:53 AM55 °FOvercast.3 mph83%29.83 "Hg10 mi
3:53 AM55 °FPartly cloudy.5 mph83%29.84 "Hg10 mi
2:53 AM57 °FClear.No wind81%29.83 "Hg10 mi
1:53 AM58 °FClear.5 mph75%29.82 "Hg10 mi
12:53 AM60 °FPassing clouds.9 mph69%29.80 "Hg10 mi
11:53 PM
Fri, May 22
60 °FPassing clouds.5 mph72%29.80 "Hg10 mi
10:53 PM64 °FCloudy.No wind58%29.80 "Hg10 mi
9:53 PM64 °FMostly cloudy.6 mph61%29.78 "Hg10 mi
8:53 PM65 °FSunny.No wind56%29.76 "Hg10 mi
7:53 PM69 °FScattered clouds.6 mph47%29.75 "Hg10 mi
6:53 PM71 °FPartly sunny.8 mph41%29.75 "Hg10 mi
5:53 PM72 °FSunny.5 mph34%29.76 "Hg10 mi
4:53 PM72 °FSunny.No wind31%29.75 "Hg10 mi
3:53 PM70 °FSunny.6 mph44%29.77 "Hg10 mi
2:53 PM68 °FScattered clouds.No wind45%29.79 "Hg10 mi
1:53 PM68 °FScattered clouds.5 mph47%29.80 "Hg10 mi
12:53 PM67 °FScattered clouds.3 mph53%29.82 "Hg10 mi
11:53 AM66 °FPartly sunny.No wind56%29.83 "Hg10 mi
10:53 AM64 °FSunny.6 mph58%29.85 "Hg10 mi
Weather by CustomWeather, © 2015

See weather overviewHow to use our weather pages